timestamp,gas_concentrations,,corrected_fluxes_and_quality_flags,,,,,,,,,,storage_terms,,,turbulence,,,footprint,,
ISOdate,CO2_1_1_1,H2O_1_1_1,Tau_1_1_1,QcTau_1_1_1,H_1_1_1,QcH_1_1_1,LE_1_1_1, QcLE_1_1_1,Fc_1_1_1, QcFc_1_1_1,E_1_1_1, QcE_1_1_1,Sa_1_1_1,Sw_1_1_1,Sc_1_1_1,ustar_1_1_1,MO_length_1_1_1,ZL_1_1_1,Fetchmax_1_1_1,Fetch70_1_1_1,Fetch90_1_1_1
yyyymmddHHMM,[µmol+1mol_a-1],[mmol+1mol_a-1],[kg+1m-1s-2],[#],[W+1m-2],[#],[W+1m-2],[#],[µmol+1s-1m-2],[#],[mmol+1s-1m-2],[#],[W+1m-2],[W+1m-2],[µmol+1s-1m-2],[m+1s-1],[m],[#],[m],[m],[m]
201801290030,410.00496979126649,1.8520577761386052,0.14446024258017759,0,14.220309900977847,1,1.0080153327436605,2,-1.5977538315413788,1,2.21199954082657822E-002,2,-9999.,-9999.,-9999.,0.33515669847441615,-224.61920916365673,-9.61627461890951635E-002,87.489759639619948,159.95918404890270,239.64800608494022
201801290100,410.14548130248858,1.8318782685269741,0.39166023624238566,0,13.620057259345401,0,7.3040205196479500,0,-0.35080984503732004,0,0.16023705228533411,0,-7.2373173961287609,-0.79566770138369902,0.12154414170920617,0.55151599843307542,-1045.0754836860281,-2.06683635174521874E-002,125.36225607681052,229.20218634930649,343.38664125798289
201801290130,410.15440120118279,1.7879048121010883,0.22574798090787818,0,2.6766140049839775,2,2.5143849505355265,0,0.64584233782758393,0,5.51437683069156900E-002,0,-8.4492581392812731,-1.7367371952829627,7.72623824924887313E-003,0.41842601148921688,-2322.4074577176052,-9.30069352310290004E-003,103.92827653306544,190.01403572618256,284.67565060853798
201801290200,409.64521640818884,1.7898595371259809,0.26287896023080931,0,-2.2815606474858110,1,26.482946854335150,0,-3.0657808833773146,0,0.58072534798443376,0,-3.7354849253639277,7.72682610776521533E-002,-0.44136243230405980,0.45136609089722057,3420.3374635246473,6.31516633383340676E-003,109.35998207471334,199.94492580994546,299.55393359912199
201801290230,409.41530227068870,1.8031432905814517,0.11849947159350470,0,-1.9533470305190024,2,2.4123839231116864,1,-0.88016988174949096,1,5.28977838894927263E-002,1,-0.83294773335007688,0.52513071836967218,-0.19929818641440322,0.30304104049305242,1208.9637287450539,1.78665409775540136E-002,94.827833370038434,173.37552318668762,259.74812689042363
201801290300,408.99027719872333,1.7796127385320426,0.33977214294255353,0,-0.47542338818088548,2,3.3748170327639375,0,-0.31009200827803945,0,7.39933147130927005E-002,0,-3.0300932804278764,-0.93067999719015881,-0.36857431229727200,0.51303709824011601,24100.862253689833,8.96233494579350533E-004,115.59362380065605,211.34201100302715,316.62884403919531
201801290330,409.15801507048150,1.7659598852842597,0.17634304184256847,0,-1.8066557681017803,0,1.2711133836316078,0,-0.21495468177441313,1,2.78704617726575725E-002,0,1.0940306621729994,-0.53989277288114679,0.14543706217421098,0.36962914083076864,2371.8834373379386,9.10668697288200685E-003,98.208586037273719,179.55661729815449,269.00853221221837
201801290400,409.29890325038838,1.7630368272080852,0.22356295341906418,0,-2.2309321121951000,0,1.4865511911827762,1,-6.99877669513634532E-002,1,3.25948683575071133E-002,1,0.58896818220119274,-0.11556327322859437,0.12213111189635688,0.41622946813821765,2742.4839815712244,7.87607152681523565E-003,110.39438763825044,201.83614908682492,302.38733069388979
201801290430,409.37319979032497,1.7579041507121098,0.32318366690602573,0,0.49511386929962609,2,4.6226692808032110,0,-0.42235735190462043,0,0.10135526783102450,0,-0.98449115132304910,-0.20294331650166564,6.44099484431116115E-002,0.50042716883484939,-21474.639344931798,-1.00583761398990806E-003,122.77403494662582,224.47009265253755,336.29710259985183
201801290500,409.39142919377912,1.7538706066482095,5.31235741512044932E-002,1,-1.5476139858934808,0,0.79385505774913823,1,-0.73343084888789711,0,1.74040908623197023E-002,1,-2.6931428228555521,-0.15953098467359045,1.58066858820045224E-002,0.20286984074308717,457.64676654777088,4.71979735876606743E-002,93.120783082366316,170.25449082505770,255.07225168614329
201801290530,409.57321965027228,1.7545827736495840,2.46079783324320601E-002,0,-1.9561343057698342,1,0.27219203450679241,1,-1.6482917901506815,0,5.96745002550476671E-003,1,0.20196141185078240,2.81633630824151340E-002,0.15761121854597138,0.13808230594558077,114.16375779602538,0.18920190099727086,47.386839660936744,370.00000000000000,1604.0000000000000
201801290600,409.65705811030216,1.7483996986732913,1.35540898866988429E-002,0,0.23298060686628286,1,0.64431163658518575,1,-0.89499698926134952,0,1.41269979910388192E-002,1,2.5144645313189806,-0.24433404028953948,7.26401386691566259E-002,0.10251232253889217,-392.13727224792393,-5.50827517011534401E-002,90.566121300604365,398.00000000000000,1134.0000000000000
201801290630,409.95537810010592,1.7516248908044882,1.31473782266902442E-002,1,0.62953686720131419,2,0.11665851885389567,1,-0.43598914510487830,1,2.55828302790044471E-003,1,4.8476527681163359,0.12730265771086879,0.25822385836799749,0.10101140610897871,-138.81942684002010,-0.15559781863162803,47.842716277726758,189.00000000000000,497.00000000000000
201801290700,410.96176622093628,1.7481126600878740,1.74713842891667422E-002,1,2.8971724530156937,2,-3.01190207972371537E-003,2,-0.62071284301937779,1,-6.60617588379830677E-005,2,4.7770030310504978,-0.13850806015015918,0.87049603202523052,0.11648515073082752,-46.259438325875607,-0.46693173937474852,9.8208425356969631,38.000000000000000,101.00000000000000
201801290730,411.00179675254770,1.7561475464462732,4.40574875897731515E-003,1,-1.8808934142522926,1,0.49867986701044265,1,4.78551415953447495E-002,1,1.09390105376684088E-002,1,2.9035867394689725,0.31669370048756712,3.46104502695738919E-002,5.85073102714823989E-002,9.0289021998318741,2.3923174182130595,190.48205782835691,1475.0000000000000,6359.0000000000000
201801290800,411.37965720739226,1.7708122514110509,1.07532397839540089E-002,0,0.54203531163768381,2,0.66481741093200730,0,0.19667019110821604,1,1.45858301826015547E-002,0,4.4861119877320634,0.57745293542127984,0.32644007929934177,9.14414426461772900E-002,-119.60199785792580,-0.18059898987355094,128.37533842704070,469.00000000000000,1172.0000000000000
201801290830,411.41639801638348,1.7860793059077000,9.57381388659762390E-003,1,-0.19544880328743175,2,0.72911014963635068,0,0.36819677222941133,0,1.59924813479122609E-002,0,-6.5642467044056687,0.60195785182760142,3.17747579967860641E-002,8.62355616518939855E-002,278.21639890097435,7.76374077348621627E-002,210.77886914452642,1585.0000000000000,6686.0000000000000
201801290900,411.60752582246062,1.7903457604774202,1.59291622998579338E-002,1,-0.72766667442919197,1,0.25489820970063276,0,-5.45031181610788756E-002,2,5.59082719549152795E-003,0,-0.83111157483576659,0.16824306646553625,0.16531155396381281,0.11122894722857395,160.35081266913656,0.13470464939001492,49.183590780603787,371.00000000000000,1564.0000000000000
201801290930,412.19241264289599,1.7923404342506888,8.34330796487485439E-004,2,-0.33867356887482808,1,0.47629452580008241,1,0.18849796728264639,1,1.04491221897630941E-002,1,5.8713955194582921,7.85715601808935071E-002,0.50543993472630611,2.54672157438227860E-002,4.1354158199773208,5.2231748729244982,1395.8965311413456,-9999.,-9999.
201801291000,411.89139532970472,1.7966517254872780,2.02537038965391950E-002,0,-0.64571303417798631,0,1.0038897028218363,1,0.23304265797131482,1,2.20196942879333710E-002,1,-4.8859508715496291,0.17000545290673502,-0.26035879375482446,0.12542190226050220,259.10699975765772,8.33632438344098781E-002,60.998135842402114,436.00000000000000,1767.0000000000000
201801291030,412.09253009083449,1.7977041610329318,1.69029196032900860E-003,2,-0.56969354052326793,1,0.96342177889071168,1,2.99271740417187300E-002,2,2.11317388991665370E-002,1,-0.40293602877991119,4.14979108790005796E-002,0.17395488785052016,3.62341219237777498E-002,7.0805848626729126,3.0505954548853507,86.046774114810063,600.00000000000000,2391.0000000000000
201801291100,411.91774856568071,1.7964331736112806,2.53469717177685775E-003,1,-0.40945882324555782,0,-0.47587244106736087,1,3.66548204456410703E-003,2,-1.04367592920822753E-002,1,-2.7039663261309377,-5.01379487686949774E-002,-0.15121537372251864,4.43633520944277104E-002,18.080050411485605,1.1946869344057969,122.50536175118432,1008.0000000000000,4553.0000000000000
201801291130,411.38453486883981,1.8139141808873851,9.92961973961721533E-002,0,-6.4260510902824608,1,1.2452625182994688,0,0.24141356905866762,1,2.73122995571158135E-002,0,1.3769165067697862,0.68942424021655158,-0.46123126973937156,0.27769659003175035,282.56049446972787,7.64438073359689635E-002,91.032344779773979,166.43615953468500,249.35169562210513
201801291200,411.12132728423467,1.8285376341732054,0.10115022059032966,0,-3.9702565743161853,0,0.19961820248472009,2,-3.52716279691533685E-002,2,4.37786780349551027E-003,2,-2.1584289394035334,0.57695906963594823,-0.22774873062839546,0.28023269114327976,469.98131955090440,4.59592734890827345E-002,110.92387453395177,202.80422000335099,303.83767733246333
201801291230,411.65446370872667,1.8266760577471959,6.27700809626709905E-002,0,-2.1998173279720645,0,1.2597051751209918,1,0.16934307749054139,0,2.76253263600234091E-002,1,-1.4869058531490040,-7.34692809038717393E-002,0.46142569748740253,0.22072861756072604,414.51201126216642,5.21094670676229207E-002,98.566406352977580,180.21082695619762,269.98865749257499
201801291300,411.39546510345548,1.8212251684903067,0.14119688743383971,0,-8.0083724900911761,0,3.4149289552440254,0,0.61522167676878570,0,7.48839929827730538E-002,0,-1.9326653013202917,-0.21520018564905319,-0.22422293301705395,0.33100520408233886,383.97345427778231,5.62538888023588896E-002,97.732824139614308,178.68677281275836,267.70534666667675
201801291330,411.47603879208572,1.8220561961362960,0.12022033834761019,0,-4.0249959477526218,0,2.8738793221285461,1,0.26811815224971436,0,6.30188430283625672E-002,1,-0.33612122573528902,3.28097779282666077E-002,6.97562239109847382E-002,0.30542722393614230,600.18895691980549,3.59886661541593406E-002,102.26955149679767,186.98135733666825,280.13214575468851
201801291400,411.71508520338051,1.8176891364694592,9.17255206379223587E-002,0,-0.62526969176186464,0,1.3401108611233694,1,0.16616940107237244,1,2.93859345459199506E-002,1,-0.19327969860978228,-0.17242603211564972,0.20696395581519714,0.26677929474383827,2574.6962743841650,8.38933905132808327E-003,98.133911469433301,179.42008837191034,268.80398700187692
201801291430,412.34366685649053,1.8228996266793001,8.72462307558738021E-002,0,1.4168207523406038,0,14.140379357667761,1,-1.2514382327221234,1,0.31006745196245317,1,-0.22689817578764498,0.20573323827356010,0.54423027574114569,0.26018157469155168,-1054.0164891553507,-2.04930380333133433E-002,98.713838344076137,180.48037965694763,270.39249655723165
201801291500,410.74595922688059,1.7605085793320754,0.25213849977923680,0,12.285308345153917,0,9.3892745979809860,1,0.34698364333542125,2,0.20588275685354507,1,-0.44542154850640148,-2.4636993344185352,-1.3834092448159114,0.44228424916249665,-597.10246553653451,-3.61746957125541752E-002,103.99395257098692,190.13411246980101,284.85554745132595
201801291530,409.74867419820021,1.6443519923492678,0.31761786581111057,0,29.494640738450645,0,9.9797641659479037,0,6.00835512528983262E-002,0,0.21879858098954549,0,-3.9533626057614812,-4.5915006545603623,-0.86427973450488826,0.49617396908975553,-351.20998483153267,-6.15016683263177252E-002,100.57446183305858,183.88219281023325,275.48903255237144
201801291600,410.44294059225729,1.6446053044393081,0.48121703639208629,0,68.268973944621422,0,11.518408281473247,0,-1.7702395588141400,1,0.25247833771262801,0,-5.7508908714555949,1.00254874136853599E-002,0.60229238928753115,0.61042024899807079,-282.56468878401029,-7.64426726246421884E-002,113.92593763042954,208.29294880262916,312.06079325112086
201801291630,409.59011005182265,1.5882107783103223,0.28151313249143678,0,59.808774972738078,0,7.0937584589922702,0,0.74146676181144411,0,0.15543132534549867,0,-10.551261712744290,-2.2366267891088678,-0.74110794378175382,0.46648145679743069,-143.95156684591606,-0.15005046817670536,95.632670818092137,174.84702273146829,261.95270135082961
201801291700,409.59997510519577,1.5697981273257418,0.23155588659399340,1,79.897392453846408,0,4.7935838927759189,1,-0.49314959456073293,0,0.10506304351199218,1,7.9264983167104468,-0.72910574186899735,8.56176457341604850E-003,0.42333960097915241,-80.536046210060775,-0.26820288574461548,87.198548593696557,159.42675737995526,238.85033391401512
201801291730,410.05096903675440,1.5801419103569583,0.53876672158444561,0,118.44985834223064,0,5.0772862685367999,1,0.51355432227979669,0,0.11132042357489112,1,9.5261850198354736,0.40869162085831490,0.39068814136763402,0.64634496474705028,-193.28259305216568,-0.11175346759845210,116.53820189645383,213.06900101987770,319.21618978322152
201801291800,410.20361520763737,1.5511645644392844,0.36730982481656266,1,151.48776083549831,0,8.7412928744838556,0,1.0862877445419494,0,0.19166023655042405,0,0.81495398392874119,-1.1440260100139268,0.13213551332926587,0.53387652508706196,-85.130092983187609,-0.25372931290308587,109.05330532816315,199.38422290772002,298.71389847814208
201801291830,409.99304000301015,1.5017997502043468,0.32646146368311701,1,136.18473393111799,0,22.976368179256696,1,2.8630146118513577,0,0.50378510342874872,1,0.47022131213762453,-1.9477956810224220,-0.18217847509821569,0.50345234011483697,-79.383410445867185,-0.27209715328027367,106.49140976199642,194.70026073808398,291.69646961836872
201801291900,410.34236459063584,1.5091768775724166,0.49454019442211589,0,173.63769679378700,0,6.1642621194409459,0,0.93197129198064488,0,0.13523183483524623,0,14.444054251162843,0.29011016718935484,0.30137183715484622,0.62051454534121386,-116.52340701383183,-0.18537048094925673,114.81098859946297,209.91110424655116,314.48508497264430
201801291930,410.15444810089360,1.4948659923143810,0.26807765259199795,0,69.627388665753898,0,2.1395395999833124,0,0.54314615698868396,0,4.69285430547242213E-002,0,-5.0101676526564081,-0.56321710941008485,-0.16221498591142069,0.45672418879350440,-115.85769732850687,-0.18643560590328861,104.33165100068830,190.75153290268520,285.78055576851989
201801292000,410.02013633912452,1.5438845774111156,0.41857311033082173,0,111.52811853822624,0,6.5872210044237693,0,0.77028229382553182,0,0.14449380184427610,0,1.8677143923054444,1.9283724081739906,-0.11590206317848774,0.57080514280949590,-141.19125800877927,-0.15298397581142675,105.46168193031103,192.81758984691547,288.87588555584466
201801292030,410.02556351733216,1.5063252002021423,0.36779400085393721,1,169.63174801811709,1,-3.3023496530869432,2,0.24401014318464576,1,-7.24545039039834610E-002,2,5.8817427479369844,-1.4757069936966050,4.67840880338414155E-003,0.53533787067834604,-76.570006672258344,-0.28209479062022569,104.73661615359194,191.49193835920414,286.88981806192425
201801292100,410.13334021822635,1.4910448931394784,0.35574018029673599,1,147.08029438582932,0,6.1952089813868430,1,-0.52108385220971520,0,0.13595439653601449,1,5.8516335397654098,-0.59971873020553190,9.28277261188690389E-002,0.52671596372617191,-84.114079895222062,-0.25679410660981322,114.28209422204819,208.94411664242693,313.03636133345407
201801292130,410.23632451232697,1.5188114335936640,0.36898163372721410,0,73.777649410153856,0,1.9560612104701600,0,-0.50040693359233845,0,4.29212392257834058E-002,0,-2.9274393967014762,1.0904959292204128,8.87489215088082539E-002,0.53628425465686602,-177.00593491820018,-0.12202980657107355,118.12792847599636,215.97552822456922,323.57069717445086
201801292200,410.22627874589955,1.5443239212026711,0.38470621137581107,0,67.474229449002635,0,1.7295114710408286,1,0.37967116703441084,0,3.79424963724826481E-002,1,-5.3910292184121253,1.0030146647622893,-8.66443018408033158E-003,0.54736490089578238,-205.79121066878270,-0.10496075089798086,114.24975282414728,208.88498625230426,312.94777323408249
201801292230,410.12095776847059,1.4907787597586344,0.26304657866431991,0,19.849615626440862,1,7.1020402158070759,1,6.63880100836502507E-002,1,0.15571381321551259,1,-15.998015674548222,-2.1120094551822648,-9.10824113179417028E-002,0.45200466979462606,-393.98433640325567,-5.48245145915945906E-002,112.34450289154570,205.40158172720868,307.72899849607683
201801292300,410.23304976813529,1.4585198141127500,0.26964888160709322,0,-1.7279541996939580,2,1.2119847525803813,2,2.30422005687477838E-002,2,2.65598297171101665E-002,2,-13.401231801100552,-1.2759419452839074,9.71591021499261104E-002,0.45711832923247503,4681.9318484619071,4.61348022549622639E-003,112.83705966386249,206.30213259992905,309.07818780526651
201801292330,410.13193615414121,1.4690857628043885,0.24410085664077119,0,-4.3276164551043808,2,0.95160717875463652,1,9.69847254451447482E-002,2,2.08433160647813163E-002,1,-13.634629940328693,0.41909575010312061,-8.78463046469793590E-002,0.43442253932890651,1604.8413298884316,1.34592745075313037E-002,114.09673845811314,208.60522718976480,312.52864317962258
201801300000,410.09874247427638,1.4701049543893510,5.92430440351381857E-002,0,-10.415886393946927,1,1.2214975517397380,1,0.22110064924847850,1,2.67480274464022456E-002,1,-6.8536469992307074,4.04765473559773395E-002,-2.88670358378587087E-002,0.21390946492803017,79.601628755246480,0.27135123159871727,104.14512620294013,190.41050608336846,285.26963544996067
